Time,TemperatureF,DewpointF,PressureIn,WindDirection,WindDirectionDegrees,WindSpeedMPH,WindSpeedGustMPH,Humidity,HourlyPrecipIn,Conditions,Clouds,dailyrainin,SoftwareType,DateUTC
2013-03-18 00:00:00,34.6,32.2,29.94,East,90,7.0,7.0,91,0.21,,,0.12,Wunderground v.1.15,2013-03-18 04:00:00,
2013-03-18 00:07:00,34.5,32.1,29.94,ESE,109,6.0,8.0,91,0.21,,,0.00,Wunderground v.1.15,2013-03-18 04:07:00,
2013-03-18 00:09:00,34.6,32.2,29.94,East,98,6.0,8.0,91,0.24,,,0.01,Wunderground v.1.15,2013-03-18 04:09:00,
2013-03-18 00:12:00,34.5,32.1,29.94,SE,127,6.0,11.0,91,0.32,,,0.03,Wunderground v.1.15,2013-03-18 04:12:00,
2013-03-18 00:17:00,34.5,32.1,29.94,ENE,73,6.0,12.0,91,0.35,,,0.06,Wunderground v.1.15,2013-03-18 04:17:00,
2013-03-18 00:23:00,34.5,32.1,29.94,East,87,7.0,8.0,91,0.41,,,0.09,Wunderground v.1.15,2013-03-18 04:23:00,
2013-03-18 00:29:00,34.5,32.4,29.93,ESE,108,7.0,10.0,92,0.44,,,0.13,Wunderground v.1.15,2013-03-18 04:29:00,
2013-03-18 00:34:00,34.4,32.3,29.93,ESE,110,6.0,7.0,92,0.39,,,0.18,Wunderground v.1.15,2013-03-18 04:34:00,
2013-03-18 00:40:00,34.4,32.3,29.93,ESE,111,6.0,7.0,92,0.35,,,0.21,Wunderground v.1.15,2013-03-18 04:40:00,
2013-03-18 00:45:00,34.4,32.3,29.93,NE,50,6.0,10.0,92,0.33,,,0.24,Wunderground v.1.15,2013-03-18 04:45:00,
2013-03-18 00:50:00,34.4,32.3,29.93,ESE,108,4.0,4.0,92,0.26,,,0.26,Wunderground v.1.15,2013-03-18 04:50:00,
2013-03-18 00:55:00,34.4,32.3,29.92,ESE,120,5.0,10.0,92,0.18,,,0.28,Wunderground v.1.15,2013-03-18 04:55:00,
2013-03-18 01:01:00,34.4,32.3,29.92,ESE,105,7.0,7.0,92,0.26,,,0.30,Wunderground v.1.15,2013-03-18 05:01:00,
2013-03-18 01:07:00,34.4,32.3,29.91,East,92,6.0,8.0,92,0.25,,,0.33,Wunderground v.1.15,2013-03-18 05:07:00,
2013-03-18 01:12:00,34.4,32.3,29.91,East,87,5.0,7.0,92,0.29,,,0.35,Wunderground v.1.15,2013-03-18 05:12:00,
2013-03-18 01:18:00,34.4,32.6,29.91,NE,51,5.0,9.0,93,0.28,,,0.37,Wunderground v.1.15,2013-03-18 05:18:00,
2013-03-18 01:23:00,34.5,32.7,29.90,NE,50,5.0,7.0,93,0.23,,,0.39,Wunderground v.1.15,2013-03-18 05:23:00,
2013-03-18 01:28:00,34.5,32.7,29.90,SE,134,4.0,7.0,93,0.21,,,0.41,Wunderground v.1.15,2013-03-18 05:28:00,
2013-03-18 01:34:00,34.6,32.8,29.90,ENE,75,5.0,7.0,93,0.16,,,0.43,Wunderground v.1.15,2013-03-18 05:34:00,
2013-03-18 01:40:00,34.6,32.8,29.89,ESE,118,6.0,6.0,93,0.10,,,0.44,Wunderground v.1.15,2013-03-18 05:40:00,
2013-03-18 01:45:00,34.6,32.8,29.89,ESE,115,6.0,10.0,93,0.11,,,0.45,Wunderground v.1.15,2013-03-18 05:45:00,
2013-03-18 01:50:00,34.6,32.8,29.89,ESE,118,6.0,6.0,93,0.19,,,0.46,Wunderground v.1.15,2013-03-18 05:50:00,
2013-03-18 01:57:00,34.6,32.8,29.88,SE,129,7.0,11.0,93,0.16,,,0.48,Wunderground v.1.15,2013-03-18 05:57:00,
2013-03-18 02:02:00,34.6,32.8,29.88,ESE,117,8.0,10.0,93,0.22,,,0.50,Wunderground v.1.15,2013-03-18 06:02:00,
2013-03-18 02:08:00,34.6,32.8,29.86,East,96,7.0,10.0,93,0.12,,,0.51,Wunderground v.1.15,2013-03-18 06:08:00,
2013-03-18 02:13:00,34.7,32.9,29.85,ESE,113,7.0,12.0,93,0.17,,,0.53,Wunderground v.1.15,2013-03-18 06:13:00,
2013-03-18 02:19:00,34.8,33.0,29.85,SSE,152,8.0,12.0,93,0.09,,,0.53,Wunderground v.1.15,2013-03-18 06:19:00,
2013-03-18 02:24:00,34.8,33.0,29.85,ESE,111,8.0,13.0,93,0.07,,,0.54,Wunderground v.1.15,2013-03-18 06:24:00,
2013-03-18 02:30:00,34.9,33.1,29.84,ESE,120,9.0,9.0,93,0.08,,,0.55,Wunderground v.1.15,2013-03-18 06:30:00,
2013-03-18 02:37:00,35.0,33.2,29.84,ESE,109,7.0,10.0,93,0.09,,,0.56,Wunderground v.1.15,2013-03-18 06:37:00,
2013-03-18 02:43:00,35.1,33.3,29.84,SE,129,7.0,11.0,93,0.07,,,0.56,Wunderground v.1.15,2013-03-18 06:43:00,
2013-03-18 02:49:00,35.1,33.3,29.85,SE,135,6.0,11.0,93,0.06,,,0.57,Wunderground v.1.15,2013-03-18 06:49:00,
2013-03-18 02:55:00,35.2,33.4,29.84,SE,133,7.0,9.0,93,0.09,,,0.58,Wunderground v.1.15,2013-03-18 06:55:00,
2013-03-18 03:01:00,35.4,33.6,29.84,SSE,148,7.0,9.0,93,0.11,,,0.59,Wunderground v.1.15,2013-03-18 07:01:00,
2013-03-18 03:07:00,35.5,33.7,29.83,SE,128,8.0,14.0,93,0.10,,,0.60,Wunderground v.1.15,2013-03-18 07:07:00,
2013-03-18 03:12:00,35.7,33.9,29.83,SE,132,9.0,11.0,93,0.07,,,0.61,Wunderground v.1.15,2013-03-18 07:12:00,
2013-03-18 03:18:00,35.7,33.9,29.83,SSE,147,9.0,15.0,93,0.07,,,0.61,Wunderground v.1.15,2013-03-18 07:18:00,
2013-03-18 03:24:00,35.7,33.9,29.83,SE,132,8.0,9.0,93,0.11,,,0.63,Wunderground v.1.15,2013-03-18 07:24:00,
2013-03-18 03:29:00,35.7,33.9,29.83,SE,127,7.0,10.0,93,0.11,,,0.63,Wunderground v.1.15,2013-03-18 07:29:00,
2013-03-18 03:35:00,35.8,34.0,29.83,ESE,122,5.0,7.0,93,0.07,,,0.64,Wunderground v.1.15,2013-03-18 07:35:00,
2013-03-18 03:40:00,35.9,34.1,29.82,SE,131,4.0,7.0,93,0.10,,,0.65,Wunderground v.1.15,2013-03-18 07:40:00,
2013-03-18 03:46:00,36.0,34.4,29.81,SE,139,6.0,9.0,94,0.08,,,0.66,Wunderground v.1.15,2013-03-18 07:46:00,
2013-03-18 03:52:00,36.1,34.5,29.81,SE,145,8.0,11.0,94,0.15,,,0.67,Wunderground v.1.15,2013-03-18 07:52:00,
2013-03-18 03:57:00,36.2,34.6,29.80,SE,140,8.0,11.0,94,0.10,,,0.68,Wunderground v.1.15,2013-03-18 07:57:00,
2013-03-18 04:02:00,36.3,34.5,29.80,SE,136,8.0,8.0,93,0.18,,,0.70,Wunderground v.1.15,2013-03-18 08:02:00,
2013-03-18 04:07:00,36.2,34.6,29.79,SE,125,7.0,8.0,94,0.18,,,0.71,Wunderground v.1.15,2013-03-18 08:07:00,
2013-03-18 04:12:00,36.2,34.6,29.78,East,98,7.0,7.0,94,0.14,,,0.72,Wunderground v.1.15,2013-03-18 08:12:00,
2013-03-18 04:17:00,36.2,34.6,29.80,SE,128,5.0,8.0,94,0.11,,,0.73,Wunderground v.1.15,2013-03-18 08:17:00,
2013-03-18 04:23:00,36.2,34.6,29.81,NNW,329,3.0,7.0,94,0.07,,,0.74,Wunderground v.1.15,2013-03-18 08:23:00,
2013-03-18 04:29:00,36.3,34.7,29.80,NNE,27,3.0,7.0,94,0.07,,,0.74,Wunderground v.1.15,2013-03-18 08:29:00,
2013-03-18 04:34:00,36.3,34.7,29.79,ENE,66,3.0,7.0,94,0.05,,,0.74,Wunderground v.1.15,2013-03-18 08:34:00,
2013-03-18 04:39:00,36.3,34.7,29.77,East,89,5.0,8.0,94,0.04,,,0.74,Wunderground v.1.15,2013-03-18 08:39:00,
2013-03-18 04:45:00,36.2,34.6,29.76,East,88,5.0,8.0,94,0.00,,,0.74,Wunderground v.1.15,2013-03-18 08:45:00,
2013-03-18 04:50:00,36.2,34.6,29.76,ENE,75,5.0,5.0,94,0.00,,,0.74,Wunderground v.1.15,2013-03-18 08:50:00,
2013-03-18 04:55:00,36.2,34.6,29.76,ENE,66,4.0,9.0,94,0.00,,,0.74,Wunderground v.1.15,2013-03-18 08:55:00,
2013-03-18 05:00:00,36.3,34.7,29.74,East,100,5.0,5.0,94,0.00,,,0.74,Wunderground v.1.15,2013-03-18 09:00:00,
2013-03-18 05:06:00,36.2,34.6,29.76,East,94,5.0,7.0,94,0.00,,,0.74,Wunderground v.1.15,2013-03-18 09:06:00,
2013-03-18 05:12:00,36.2,34.6,29.74,ESE,114,5.0,11.0,94,0.00,,,0.74,Wunderground v.1.15,2013-03-18 09:12:00,
2013-03-18 05:18:00,36.2,34.6,29.74,SE,125,6.0,11.0,94,0.00,,,0.74,Wunderground v.1.15,2013-03-18 09:18:00,
2013-03-18 05:23:00,36.3,34.7,29.75,East,89,5.0,7.0,94,0.00,,,0.74,Wunderground v.1.15,2013-03-18 09:23:00,
2013-03-18 05:28:00,36.3,34.7,29.74,ESE,114,5.0,9.0,94,0.00,,,0.74,Wunderground v.1.15,2013-03-18 09:28:00,
2013-03-18 05:34:00,36.3,34.7,29.74,ENE,60,4.0,7.0,94,0.00,,,0.74,Wunderground v.1.15,2013-03-18 09:34:00,
2013-03-18 05:40:00,36.3,34.7,29.74,SE,125,4.0,7.0,94,0.00,,,0.74,Wunderground v.1.15,2013-03-18 09:40:00,
2013-03-18 05:45:00,36.3,34.7,29.74,ESE,114,4.0,8.0,94,0.00,,,0.74,Wunderground v.1.15,2013-03-18 09:45:00,
2013-03-18 05:51:00,36.4,34.8,29.73,SE,124,4.0,7.0,94,0.00,,,0.74,Wunderground v.1.15,2013-03-18 09:51:00,
2013-03-18 05:57:00,36.4,34.8,29.73,SSE,148,4.0,10.0,94,0.00,,,0.74,Wunderground v.1.15,2013-03-18 09:57:00,
2013-03-18 06:03:00,36.5,34.9,29.73,ESE,118,4.0,7.0,94,0.00,,,0.74,Wunderground v.1.15,2013-03-18 10:03:00,
2013-03-18 06:08:00,36.5,34.9,29.73,East,95,4.0,7.0,94,0.00,,,0.74,Wunderground v.1.15,2013-03-18 10:08:00,
2013-03-18 06:13:00,36.5,34.9,29.73,SE,136,4.0,7.0,94,0.00,,,0.74,Wunderground v.1.15,2013-03-18 10:13:00,
2013-03-18 06:18:00,36.6,35.0,29.72,SE,133,5.0,8.0,94,0.00,,,0.74,Wunderground v.1.15,2013-03-18 10:18:00,
2013-03-18 06:24:00,36.6,35.0,29.72,ESE,119,6.0,6.0,94,0.00,,,0.74,Wunderground v.1.15,2013-03-18 10:24:00,
2013-03-18 06:29:00,36.6,35.0,29.72,ENE,78,5.0,6.0,94,0.00,,,0.74,Wunderground v.1.15,2013-03-18 10:29:00,
2013-03-18 06:35:00,36.6,35.0,29.71,ESE,102,5.0,13.0,94,0.00,,,0.74,Wunderground v.1.15,2013-03-18 10:35:00,
2013-03-18 06:41:00,36.6,35.0,29.71,ESE,118,5.0,13.0,94,0.00,,,0.74,Wunderground v.1.15,2013-03-18 10:41:00,
2013-03-18 06:47:00,36.7,35.1,29.71,ENE,71,5.0,13.0,94,0.00,,,0.74,Wunderground v.1.15,2013-03-18 10:47:00,
2013-03-18 06:52:00,36.7,35.1,29.70,SE,133,5.0,13.0,94,0.00,,,0.74,Wunderground v.1.15,2013-03-18 10:52:00,
2013-03-18 06:57:00,36.7,35.1,29.71,SE,131,4.0,13.0,94,0.00,,,0.74,Wunderground v.1.15,2013-03-18 10:57:00,
2013-03-18 07:02:00,36.8,35.2,29.71,ESE,121,4.0,13.0,94,0.00,,,0.74,Wunderground v.1.15,2013-03-18 11:02:00,
2013-03-18 07:08:00,36.8,35.2,29.71,ESE,110,4.0,13.0,94,0.00,,,0.74,Wunderground v.1.15,2013-03-18 11:08:00,
2013-03-18 07:14:00,36.8,35.2,29.70,ESE,122,4.0,13.0,94,0.00,,,0.74,Wunderground v.1.15,2013-03-18 11:14:00,
2013-03-18 07:20:00,36.9,35.3,29.71,ESE,104,4.0,13.0,94,0.00,,,0.74,Wunderground v.1.15,2013-03-18 11:20:00,
2013-03-18 07:25:00,36.9,35.3,29.70,ESE,108,4.0,13.0,94,0.00,,,0.74,Wunderground v.1.15,2013-03-18 11:25:00,
2013-03-18 07:32:00,36.9,35.3,29.70,ESE,106,3.0,13.0,94,0.00,,,0.74,Wunderground v.1.15,2013-03-18 11:32:00,
2013-03-18 07:38:00,36.9,35.3,29.70,SE,127,3.0,13.0,94,0.00,,,0.74,Wunderground v.1.15,2013-03-18 11:38:00,
2013-03-18 07:44:00,36.9,35.3,29.70,ENE,71,3.0,13.0,94,0.00,,,0.74,Wunderground v.1.15,2013-03-18 11:44:00,
2013-03-18 07:49:00,36.9,35.3,29.69,SE,126,3.0,13.0,94,0.00,,,0.74,Wunderground v.1.15,2013-03-18 11:49:00,
2013-03-18 07:54:00,37.0,35.4,29.69,ESE,109,3.0,13.0,94,0.00,,,0.74,Wunderground v.1.15,2013-03-18 11:54:00,
2013-03-18 08:00:00,37.0,35.4,29.69,East,87,2.0,13.0,94,0.00,,,0.74,Wunderground v.1.15,2013-03-18 12:00:00,
2013-03-18 08:06:00,37.0,35.4,29.70,ESE,102,3.0,13.0,94,0.00,,,0.74,Wunderground v.1.15,2013-03-18 12:06:00,
2013-03-18 08:12:00,37.1,35.5,29.70,ESE,106,3.0,13.0,94,0.00,,,0.74,Wunderground v.1.15,2013-03-18 12:12:00,
2013-03-18 08:18:00,37.1,35.5,29.70,SE,133,3.0,13.0,94,0.00,,,0.74,Wunderground v.1.15,2013-03-18 12:18:00,
2013-03-18 08:24:00,37.1,35.5,29.70,ESE,104,2.0,13.0,94,0.00,,,0.74,Wunderground v.1.15,2013-03-18 12:24:00,
2013-03-18 08:30:00,37.2,35.6,29.70,ENE,73,1.0,13.0,94,0.00,,,0.74,Wunderground v.1.15,2013-03-18 12:30:00,
2013-03-18 08:37:00,37.2,35.6,29.69,ESE,109,3.0,13.0,94,0.00,,,0.74,Wunderground v.1.15,2013-03-18 12:37:00,
2013-03-18 08:43:00,37.2,35.6,29.69,East,96,3.0,13.0,94,0.00,,,0.74,Wunderground v.1.15,2013-03-18 12:43:00,
2013-03-18 08:48:00,37.2,35.6,29.69,ESE,108,2.0,13.0,94,0.00,,,0.74,Wunderground v.1.15,2013-03-18 12:48:00,
2013-03-18 08:54:00,37.2,35.6,29.69,SE,138,2.0,13.0,94,0.00,,,0.75,Wunderground v.1.15,2013-03-18 12:54:00,
2013-03-18 08:59:00,37.2,35.9,29.69,ENE,78,2.0,13.0,95,0.00,,,0.75,Wunderground v.1.15,2013-03-18 12:59:00,
2013-03-18 09:04:00,37.2,35.9,29.69,East,85,2.0,13.0,95,0.00,,,0.75,Wunderground v.1.15,2013-03-18 13:04:00,
2013-03-18 09:10:00,37.3,36.0,29.68,SE,128,2.0,13.0,95,0.00,,,0.75,Wunderground v.1.15,2013-03-18 13:10:00,
2013-03-18 09:15:00,37.3,36.0,29.68,SE,130,2.0,13.0,95,0.00,,,0.75,Wunderground v.1.15,2013-03-18 13:15:00,
2013-03-18 09:20:00,37.3,36.0,29.68,ESE,109,2.0,13.0,95,0.00,,,0.75,Wunderground v.1.15,2013-03-18 13:20:00,
2013-03-18 09:26:00,37.4,36.1,29.68,ESE,118,2.0,13.0,95,0.00,,,0.75,Wunderground v.1.15,2013-03-18 13:26:00,
2013-03-18 09:32:00,37.4,36.1,29.68,SE,125,3.0,13.0,95,0.00,,,0.75,Wunderground v.1.15,2013-03-18 13:32:00,
2013-03-18 09:38:00,37.4,36.1,29.67,ESE,122,3.0,13.0,95,0.00,,,0.75,Wunderground v.1.15,2013-03-18 13:38:00,
2013-03-18 09:43:00,37.4,36.1,29.68,ESE,110,3.0,13.0,95,0.00,,,0.75,Wunderground v.1.15,2013-03-18 13:43:00,
2013-03-18 09:49:00,37.4,36.1,29.67,SE,143,3.0,13.0,95,0.00,,,0.75,Wunderground v.1.15,2013-03-18 13:49:00,
2013-03-18 09:54:00,37.4,36.1,29.67,ESE,123,3.0,13.0,95,0.00,,,0.75,Wunderground v.1.15,2013-03-18 13:54:00,
2013-03-18 10:00:00,37.5,36.2,29.67,SE,130,3.0,13.0,95,0.00,,,0.75,Wunderground v.1.15,2013-03-18 14:00:00,
2013-03-18 10:05:00,37.5,36.2,29.67,SE,140,3.0,13.0,95,0.00,,,0.75,Wunderground v.1.15,2013-03-18 14:05:00,
2013-03-18 10:12:00,37.5,36.2,29.68,SE,140,3.0,13.0,95,0.00,,,0.75,Wunderground v.1.15,2013-03-18 14:12:00,
2013-03-18 10:18:00,37.6,36.3,29.68,SE,145,3.0,13.0,95,0.00,,,0.75,Wunderground v.1.15,2013-03-18 14:18:00,
2013-03-18 10:24:00,37.6,36.3,29.68,SE,143,4.0,13.0,95,0.00,,,0.75,Wunderground v.1.15,2013-03-18 14:24:00,
2013-03-18 10:30:00,37.7,36.4,29.68,SE,124,4.0,4.0,95,0.00,,,0.75,Wunderground v.1.15,2013-03-18 14:30:00,
2013-03-18 10:36:00,37.8,36.5,29.67,SE,127,3.0,13.0,95,0.00,,,0.75,Wunderground v.1.15,2013-03-18 14:36:00,
2013-03-18 10:42:00,37.9,36.6,29.67,SE,125,2.0,13.0,95,0.00,,,0.75,Wunderground v.1.15,2013-03-18 14:42:00,
2013-03-18 10:48:00,37.9,36.6,29.67,SE,138,3.0,13.0,95,0.00,,,0.75,Wunderground v.1.15,2013-03-18 14:48:00,
2013-03-18 10:54:00,38.0,36.7,29.67,SSE,150,3.0,13.0,95,0.00,,,0.75,Wunderground v.1.15,2013-03-18 14:54:00,
2013-03-18 10:59:00,38.1,36.8,29.67,SE,136,5.0,13.0,95,0.00,,,0.75,Wunderground v.1.15,2013-03-18 14:59:00,
2013-03-18 11:05:00,38.2,37.2,29.67,SE,141,5.0,13.0,96,0.00,,,0.75,Wunderground v.1.15,2013-03-18 15:05:00,
2013-03-18 11:12:00,38.3,37.3,29.67,SSE,167,6.0,13.0,96,0.00,,,0.75,Wunderground v.1.15,2013-03-18 15:12:00,
2013-03-18 11:17:00,38.4,37.4,29.67,SE,146,5.0,13.0,96,0.00,,,0.75,Wunderground v.1.15,2013-03-18 15:17:00,
2013-03-18 11:23:00,38.6,37.3,29.67,SSE,157,5.0,13.0,95,0.00,,,0.75,Wunderground v.1.15,2013-03-18 15:23:00,
2013-03-18 11:29:00,38.8,37.8,29.67,SSE,151,4.0,13.0,96,0.00,,,0.75,Wunderground v.1.15,2013-03-18 15:29:00,
2013-03-18 11:35:00,39.0,38.0,29.67,South,172,3.0,13.0,96,0.00,,,0.75,Wunderground v.1.15,2013-03-18 15:35:00,
2013-03-18 11:42:00,39.3,38.3,29.67,SSW,204,2.0,13.0,96,0.00,,,0.75,Wunderground v.1.15,2013-03-18 15:42:00,
2013-03-18 11:47:00,39.7,38.7,29.67,SW,220,3.0,13.0,96,0.00,,,0.75,Wunderground v.1.15,2013-03-18 15:47:00,
2013-03-18 11:53:00,40.1,39.1,29.67,SSE,166,3.0,13.0,96,0.00,,,0.75,Wunderground v.1.15,2013-03-18 15:53:00,
2013-03-18 11:58:00,40.6,39.5,29.67,South,173,4.0,13.0,96,0.00,,,0.75,Wunderground v.1.15,2013-03-18 15:58:00,
2013-03-18 12:04:00,41.0,39.9,29.67,SSW,195,5.0,13.0,96,0.00,,,0.75,Wunderground v.1.15,2013-03-18 16:04:00,
2013-03-18 12:10:00,41.3,40.2,29.67,South,187,5.0,5.0,96,0.00,,,0.75,Wunderground v.1.15,2013-03-18 16:10:00,
2013-03-18 12:17:00,41.6,40.5,29.67,South,187,4.0,13.0,96,0.00,,,0.75,Wunderground v.1.15,2013-03-18 16:17:00,
2013-03-18 12:23:00,41.6,40.5,29.67,SSW,196,5.0,13.0,96,0.00,,,0.75,Wunderground v.1.15,2013-03-18 16:23:00,
2013-03-18 12:28:00,42.0,40.9,29.67,SSW,209,5.0,13.0,96,0.00,,,0.75,Wunderground v.1.15,2013-03-18 16:28:00,
2013-03-18 12:34:00,42.3,41.2,29.67,SSW,197,6.0,13.0,96,0.00,,,0.75,Wunderground v.1.15,2013-03-18 16:34:00,
2013-03-18 12:40:00,42.7,41.6,29.67,SW,214,7.0,13.0,96,0.00,,,0.75,Wunderground v.1.15,2013-03-18 16:40:00,
2013-03-18 12:46:00,43.0,41.9,29.66,SSW,204,9.0,13.0,96,0.00,,,0.75,Wunderground v.1.15,2013-03-18 16:46:00,
2013-03-18 12:52:00,43.3,42.0,29.68,SSW,207,9.0,13.0,95,0.00,,,0.75,Wunderground v.1.15,2013-03-18 16:52:00,
2013-03-18 12:57:00,43.4,42.1,29.67,SW,223,8.0,17.0,95,0.00,,,0.75,Wunderground v.1.15,2013-03-18 16:57:00,
2013-03-18 13:03:00,43.7,42.4,29.66,SW,227,9.0,13.0,95,0.00,,,0.75,Wunderground v.1.15,2013-03-18 17:03:00,
2013-03-18 13:09:00,43.8,41.9,29.66,SW,233,9.0,13.0,93,0.00,,,0.75,Wunderground v.1.15,2013-03-18 17:09:00,
2013-03-18 13:15:00,44.0,42.4,29.66,SW,214,9.0,13.0,94,0.00,,,0.75,Wunderground v.1.15,2013-03-18 17:15:00,
2013-03-18 13:22:00,44.1,42.2,29.66,North,359,8.0,13.0,93,0.00,,,0.75,Wunderground v.1.15,2013-03-18 17:22:00,
2013-03-18 13:28:00,44.1,42.2,29.66,SSW,193,9.0,13.0,93,0.00,,,0.75,Wunderground v.1.15,2013-03-18 17:28:00,
2013-03-18 13:33:00,44.2,42.0,29.65,WSW,237,8.0,13.0,92,0.00,,,0.75,Wunderground v.1.15,2013-03-18 17:33:00,
2013-03-18 13:39:00,44.2,42.0,29.65,SW,220,6.0,13.0,92,0.00,,,0.75,Wunderground v.1.15,2013-03-18 17:39:00,
2013-03-18 13:45:00,44.2,41.7,29.65,SW,218,7.0,13.0,91,0.00,,,0.75,Wunderground v.1.15,2013-03-18 17:45:00,
2013-03-18 13:51:00,44.0,41.5,29.65,SW,220,9.0,13.0,91,0.00,,,0.75,Wunderground v.1.15,2013-03-18 17:51:00,
2013-03-18 13:57:00,43.9,41.7,29.66,SW,226,11.0,13.0,92,0.00,,,0.75,Wunderground v.1.15,2013-03-18 17:57:00,
2013-03-18 14:03:00,44.1,41.6,29.66,SW,232,10.0,15.0,91,0.00,,,0.75,Wunderground v.1.15,2013-03-18 18:03:00,
2013-03-18 14:09:00,44.1,41.6,29.67,West,264,9.0,15.0,91,0.00,,,0.75,Wunderground v.1.15,2013-03-18 18:09:00,
2013-03-18 14:14:00,44.1,41.6,29.68,SW,234,8.0,13.0,91,0.00,,,0.75,Wunderground v.1.15,2013-03-18 18:14:00,
2013-03-18 14:20:00,44.0,41.5,29.68,SW,236,8.0,19.0,91,0.00,,,0.75,Wunderground v.1.15,2013-03-18 18:20:00,
2013-03-18 14:27:00,43.9,41.4,29.68,SW,234,10.0,19.0,91,0.00,,,0.75,Wunderground v.1.15,2013-03-18 18:27:00,
2013-03-18 14:33:00,43.8,41.3,29.69,SW,231,11.0,17.0,91,0.00,,,0.75,Wunderground v.1.15,2013-03-18 18:33:00,
2013-03-18 14:39:00,43.8,41.3,29.69,SW,218,11.0,17.0,91,0.00,,,0.75,Wunderground v.1.15,2013-03-18 18:39:00,
2013-03-18 14:45:00,43.7,41.2,29.69,SW,215,9.0,13.0,91,0.00,,,0.75,Wunderground v.1.15,2013-03-18 18:45:00,
2013-03-18 14:52:00,43.5,41.0,29.68,West,274,10.0,11.0,91,0.00,,,0.75,Wunderground v.1.15,2013-03-18 18:52:00,
2013-03-18 14:58:00,43.4,40.9,29.68,WNW,303,10.0,16.0,91,0.00,,,0.75,Wunderground v.1.15,2013-03-18 18:58:00,
2013-03-18 15:04:00,43.4,40.9,29.68,South,190,9.0,13.0,91,0.00,,,0.75,Wunderground v.1.15,2013-03-18 19:04:00,
2013-03-18 15:10:00,43.4,40.9,29.68,West,263,7.0,14.0,91,0.00,,,0.75,Wunderground v.1.15,2013-03-18 19:10:00,
2013-03-18 15:15:00,43.3,40.6,29.68,WSW,252,7.0,14.0,90,0.00,,,0.75,Wunderground v.1.15,2013-03-18 19:15:00,
2013-03-18 15:22:00,43.3,40.6,29.68,WSW,243,7.0,13.0,90,0.00,,,0.75,Wunderground v.1.15,2013-03-18 19:22:00,
2013-03-18 15:28:00,43.3,40.6,29.68,South,177,7.0,13.0,90,0.00,,,0.75,Wunderground v.1.15,2013-03-18 19:28:00,
2013-03-18 15:34:00,43.2,40.5,29.68,WSW,258,8.0,13.0,90,0.00,,,0.75,Wunderground v.1.15,2013-03-18 19:34:00,
2013-03-18 15:40:00,43.2,40.2,29.68,West,273,7.0,7.0,89,0.00,,,0.75,Wunderground v.1.15,2013-03-18 19:40:00,
2013-03-18 15:45:00,43.2,40.2,29.68,WNW,283,7.0,13.0,89,0.00,,,0.75,Wunderground v.1.15,2013-03-18 19:45:00,
2013-03-18 15:51:00,43.1,40.1,29.68,WNW,296,6.0,13.0,89,0.00,,,0.75,Wunderground v.1.15,2013-03-18 19:51:00,
2013-03-18 15:57:00,42.9,39.9,29.68,NNW,336,8.0,13.0,89,0.00,,,0.75,Wunderground v.1.15,2013-03-18 19:57:00,
2013-03-18 16:02:00,42.9,39.6,29.68,WNW,293,9.0,13.0,88,0.00,,,0.75,Wunderground v.1.15,2013-03-18 20:02:00,
2013-03-18 16:07:00,42.8,39.5,29.69,West,262,10.0,15.0,88,0.00,,,0.75,Wunderground v.1.15,2013-03-18 20:07:00,
2013-03-18 16:13:00,42.8,39.8,29.69,SSW,206,9.0,13.0,89,0.00,,,0.75,Wunderground v.1.15,2013-03-18 20:13:00,
2013-03-18 16:19:00,42.8,39.8,29.69,WNW,297,8.0,14.0,89,0.00,,,0.75,Wunderground v.1.15,2013-03-18 20:19:00,
2013-03-18 16:25:00,42.7,39.4,29.69,WNW,297,7.0,13.0,88,0.00,,,0.75,Wunderground v.1.15,2013-03-18 20:25:00,
2013-03-18 16:31:00,42.7,39.7,29.70,West,280,7.0,13.0,89,0.00,,,0.75,Wunderground v.1.15,2013-03-18 20:31:00,